User: anonymous   Login
Location: Montreal
(45.5000°N, 73.5833°W)
Time: 00:42:34
(UTC-05:00)
Language:

Envisat - Orbit

View from above orbital plane
View from above orbital plane
View from above satellite
View from above satellite

Ground track
Ground track

The orbit data is extracted from the following two-line orbital elements,

1 27386U 02009A   18321.68033757  .00000004  00000-0  14840-4 0  9996
2 27386  98.1700 348.3897 0001294  97.0802  11.3379 14.37934519875580
Epoch (UTC): 17 November 2018 16:19:41
Eccentricity: 0.0001294
inclination: 98.1700°
perigee height: 764 km
apogee height: 766 km
right ascension of ascending node: 348.3897°
argument of perigee: 97.0802°
revolutions per day: 14.37934519
mean anomaly at epoch: 11.3379°
orbit number at epoch: 87558

The dashed part of the orbit path shows where the satellite is in the earth's shadow,  

DLR